040  
ASUS43 KTOP 201359  
RWRKS  
 
WEATHER ROUNDUP FOR KANSAS  
NATIONAL WEATHER SERVICE GOODLAND KS  
900 AM CDT SUN MAY 20 2018  
 
NOTE: "FAIR" INDICATES FEW OR NO CLOUDS BELOW 12,000 FEET WITH NO  
SIGNIFICANT WEATHER AND/OR S TO VISIBILITY
.  
 
KSZ001>006-013>018-027>032-041>047-201500-  
NORTHWEST KANSAS  
 
CITY SKY/WX TMP DP RH WIND PRES REMARKS
 
GOODLAND SUNNY 49 42 77 N17 30.21S  
HAYS CLOUDY 54 49 83 N14 30.15R  
HILL CITY CLOUDY 53 48 83 N15 30.18R  
RUSSELL CLOUDY 54 53 97 NW8 30.12S FOG  

 
 
KSZ061>065-074>080-084>089-201500-  
SOUTHWEST KANSAS  
 
CITY SKY/WX TMP DP RH WIND PRES REMARKS
 
DODGE CITY CLOUDY 51 45 79 N15G25 30.16R  
GARDEN CITY PTSUNNY 50 44 80 N20 30.18R  
GREAT BEND CLOUDY 55 50 83 N15 30.13S  
LIBERAL CLOUDY 51 44 77 N15 30.21R  

 
 
KSZ066>073-081>083-090>101-201500-  
SOUTHEAST KANSAS  
 
CITY SKY/WX TMP DP RH WIND PRES REMARKS
 
CHANUTE CLOUDY 66 66 100 SE6 30.01F  
COFFEYVILLE LGT RAIN 67 65 93 E6 30.03R  
HUTCHINSON CLOUDY 57 53 86 NW9 30.10R  
MEDICINE LODGE N/A 56 50 80 N9 N/A  
NEWTON CLOUDY 56 55 97 N14 30.09S FOG  
PARSONS CLOUDY 67 66 97 S5 30.05R  
WICHITA INTL CLOUDY 59 58 96 NW15 30.07S  
WICHITA JABRA CLOUDY 59 58 96 N13 30.06F FOG  
WICHITA MCCONL CLOUDY 60 56 88 NW8 30.07R  
WINFIELD LGT RAIN 60 60 100 N6 30.09R FOG  

 
 
KSZ007>012-019>026-033>040-048>060-102>105-201500-  
NORTHEAST KANSAS  
 
CITY SKY/WX TMP DP RH WIND PRES REMARKS
 
CONCORDIA CLOUDY 55 54 96 NW8 30.09S  
EMPORIA CLOUDY 61 59 93 NW5 30.05S FOG  
LAWRENCE CLOUDY 66 66 100 SE6 30.08R  
MANHATTAN CLOUDY 61 56 83 CALM 30.07R HAZE  
OLATHE IND LGT RAIN 65 63 93 S9 30.10R  
OLATHE EXE LGT RAIN 63 62 97 S9 30.09R  
SALINA CLOUDY 59 55 87 NW12 30.10R  
TOPEKA BILLARD LGT RAIN 65 64 97 SE7 30.06 FOG  
TOPEKA FORBES LGT RAIN 65 64 97 CALM 30.06R FOG  

 
 
 
CLICK HERE TO GO TO PREVIOUS BULLETINS.

The Nexlab KS Page Main Text Page